{"data":{"norad_id":62896,"epoch":"2026-09-21T03:25:02.583264Z","epoch_age_seconds":112652,"freshness":"FRESH","line1":"1 62896U 25024T   26264.14239101  .00011878  00000+0  44032-3 0  9995","line2":"2 62896  43.0018 301.0542 0002762 290.2266  69.8288 15.27590671 92160","mean_motion":15.27590671,"eccentricity":0.0002762,"inclination_deg":43.0018,"raan_deg":301.0542,"arg_perigee_deg":290.2266,"mean_anomaly_deg":69.8288,"bstar":0.00044032,"rev_number":9216,"period_min":94.26609021233,"perigee_km":481.12209263838,"apogee_km":484.9121941872,"semimajor_km":6861.1541434128,"source":"CELESTRAK","updated_at":"2026-09-22T09:00:49.705421Z"}}